TimeCDT,TemperatureF,Dew PointF,Humidity,Sea Level PressureIn,VisibilityMPH,Wind Direction,Wind SpeedMPH,Gust SpeedMPH,PrecipitationIn,Events,Conditions,WindDirDegrees,DateUTC
12:12 AM,69.8,64.4,83,29.82,10.0,Calm,Calm,-,N/A,,Clear,0,2013-08-07 05:12:00
12:33 AM,68.0,62.6,83,29.83,10.0,Calm,Calm,-,N/A,,Clear,0,2013-08-07 05:33:00
12:52 AM,68.0,64.4,88,29.83,10.0,Calm,Calm,-,N/A,,Clear,0,2013-08-07 05:52:00
1:12 AM,66.2,64.4,94,29.82,10.0,Calm,Calm,-,N/A,,Clear,0,2013-08-07 06:12:00
1:33 AM,66.2,64.4,94,29.83,10.0,Calm,Calm,-,N/A,,Clear,0,2013-08-07 06:33:00
1:52 AM,66.2,60.8,83,29.83,10.0,NW,4.6,-,N/A,,Clear,310,2013-08-07 06:52:00
2:12 AM,66.2,60.8,83,29.83,10.0,WNW,4.6,-,N/A,,Clear,300,2013-08-07 07:12:00
2:32 AM,66.2,59.0,78,29.84,10.0,WNW,4.6,-,N/A,,Clear,290,2013-08-07 07:32:00
2:53 AM,64.4,59.0,83,29.84,10.0,WNW,5.8,-,N/A,,Clear,300,2013-08-07 07:53:00
3:12 AM,64.4,59.0,83,29.84,10.0,WNW,4.6,-,N/A,,Clear,290,2013-08-07 08:12:00
3:33 AM,62.6,60.8,94,29.84,10.0,WNW,3.5,-,N/A,,Clear,290,2013-08-07 08:33:00
3:53 AM,62.6,60.8,94,29.84,10.0,WNW,4.6,-,N/A,,Clear,300,2013-08-07 08:53:00
4:12 AM,62.6,60.8,94,29.85,10.0,WNW,3.5,-,N/A,,Clear,290,2013-08-07 09:12:00
4:33 AM,62.6,60.8,94,29.85,10.0,WNW,4.6,-,N/A,,Clear,300,2013-08-07 09:33:00
4:53 AM,62.6,60.8,94,29.85,10.0,NW,3.5,-,N/A,,Clear,310,2013-08-07 09:53:00
5:12 AM,62.6,60.8,94,29.85,10.0,WNW,3.5,-,N/A,,Clear,300,2013-08-07 10:12:00
5:33 AM,60.8,59.0,94,29.86,10.0,WNW,3.5,-,N/A,,Clear,290,2013-08-07 10:33:00
5:53 AM,60.8,60.8,100,29.87,10.0,NW,3.5,-,N/A,,Mostly Cloudy,320,2013-08-07 10:53:00
6:12 AM,62.6,60.8,94,29.88,5.0,NNW,6.9,-,N/A,,Overcast,330,2013-08-07 11:12:00
6:33 AM,60.8,60.8,100,29.88,1.5,NNW,6.9,-,N/A,,Overcast,340,2013-08-07 11:33:00
6:53 AM,60.8,60.8,100,29.88,0.5,NNW,6.9,-,N/A,Fog,Fog,340,2013-08-07 11:53:00
7:12 AM,62.6,60.8,94,29.89,0.5,NNW,8.1,-,N/A,Fog,Fog,340,2013-08-07 12:12:00
7:33 AM,62.6,60.8,94,29.90,1.5,NNW,8.1,-,N/A,,Overcast,340,2013-08-07 12:33:00
7:53 AM,62.6,60.8,94,29.90,4.0,North,9.2,-,N/A,,Overcast,350,2013-08-07 12:53:00
8:12 AM,62.6,60.8,94,29.91,7.0,NNW,5.8,-,N/A,,Overcast,330,2013-08-07 13:12:00
8:33 AM,62.6,60.8,94,29.92,10.0,NNW,9.2,-,N/A,,Overcast,330,2013-08-07 13:33:00
8:53 AM,62.6,60.8,94,29.94,10.0,NNW,5.8,-,N/A,,Overcast,330,2013-08-07 13:53:00
9:12 AM,64.4,60.8,88,29.95,10.0,NNW,6.9,-,N/A,,Overcast,330,2013-08-07 14:12:00
9:33 AM,64.4,60.8,88,29.95,10.0,North,4.6,-,N/A,,Overcast,350,2013-08-07 14:33:00
9:53 AM,64.4,60.8,88,29.95,10.0,NNW,6.9,-,N/A,,Overcast,340,2013-08-07 14:53:00
10:12 AM,66.2,60.8,83,29.96,10.0,NNW,4.6,-,N/A,,Overcast,330,2013-08-07 15:12:00
10:33 AM,66.2,60.8,83,29.97,10.0,NNW,8.1,-,N/A,,Overcast,330,2013-08-07 15:33:00
10:53 AM,66.2,57.2,73,29.98,10.0,North,6.9,-,N/A,,Mostly Cloudy,360,2013-08-07 15:53:00
11:12 AM,68.0,57.2,68,29.99,10.0,NW,4.6,-,N/A,,Mostly Cloudy,320,2013-08-07 16:12:00
11:32 AM,68.0,59.0,73,30.00,10.0,NW,5.8,-,N/A,,Mostly Cloudy,320,2013-08-07 16:32:00
11:53 AM,69.8,57.2,64,30.00,10.0,NNW,5.8,-,N/A,,Mostly Cloudy,340,2013-08-07 16:53:00
12:13 PM,69.8,57.2,64,30.00,10.0,NNW,5.8,-,N/A,,Scattered Clouds,340,2013-08-07 17:13:00
12:32 PM,71.6,57.2,60,30.00,10.0,North,8.1,-,N/A,,Scattered Clouds,350,2013-08-07 17:32:00
12:52 PM,69.8,57.2,64,30.00,10.0,NNW,6.9,-,N/A,,Scattered Clouds,340,2013-08-07 17:52:00
1:13 PM,71.6,57.2,60,29.99,10.0,NW,5.8,-,N/A,,Scattered Clouds,310,2013-08-07 18:13:00
1:33 PM,71.6,57.2,60,29.98,10.0,NNW,6.9,-,N/A,,Scattered Clouds,330,2013-08-07 18:33:00
1:53 PM,73.4,57.2,57,29.98,10.0,NNW,11.5,16.1,N/A,,Scattered Clouds,340,2013-08-07 18:53:00
2:12 PM,73.4,57.2,57,29.98,10.0,NW,8.1,-,N/A,,Scattered Clouds,320,2013-08-07 19:12:00
2:32 PM,73.4,55.4,53,29.98,10.0,North,9.2,-,N/A,,Clear,350,2013-08-07 19:32:00
2:53 PM,73.4,55.4,53,29.98,10.0,North,6.9,-,N/A,,Clear,350,2013-08-07 19:53:00
3:12 PM,73.4,55.4,53,29.98,10.0,NNW,8.1,-,N/A,,Clear,330,2013-08-07 20:12:00
3:33 PM,73.4,55.4,53,29.98,10.0,North,6.9,-,N/A,,Clear,350,2013-08-07 20:33:00
3:53 PM,73.4,55.4,53,29.98,10.0,NW,6.9,-,N/A,,Clear,320,2013-08-07 20:53:00
4:12 PM,73.4,55.4,53,29.98,10.0,NNW,6.9,-,N/A,,Scattered Clouds,330,2013-08-07 21:12:00
4:33 PM,73.4,55.4,53,29.98,10.0,NNW,5.8,-,N/A,,Clear,330,2013-08-07 21:33:00
4:52 PM,73.4,53.6,50,29.98,10.0,NW,6.9,-,N/A,,Clear,310,2013-08-07 21:52:00
5:13 PM,73.4,53.6,50,29.98,10.0,NNW,4.6,-,N/A,,Clear,330,2013-08-07 22:13:00
5:32 PM,73.4,53.6,50,29.99,10.0,NNW,8.1,-,N/A,,Clear,340,2013-08-07 22:32:00
5:53 PM,73.4,53.6,50,29.98,10.0,North,5.8,-,N/A,,Clear,350,2013-08-07 22:53:00
6:13 PM,71.6,53.6,53,29.99,10.0,North,5.8,-,N/A,,Clear,350,2013-08-07 23:13:00
6:32 PM,71.6,53.6,53,29.99,10.0,NNW,5.8,-,N/A,,Clear,340,2013-08-07 23:32:00
6:53 PM,71.6,53.6,53,29.99,10.0,North,6.9,-,N/A,,Clear,360,2013-08-07 23:53:00
7:13 PM,69.8,51.8,53,29.99,10.0,North,4.6,-,N/A,,Clear,350,2013-08-08 00:13:00
7:32 PM,69.8,53.6,56,29.99,10.0,NNW,3.5,-,N/A,,Clear,340,2013-08-08 00:32:00
7:53 PM,68.0,53.6,60,30.00,10.0,NNW,3.5,-,N/A,,Clear,340,2013-08-08 00:53:00
8:13 PM,66.2,55.4,68,30.00,10.0,Calm,Calm,-,N/A,,Clear,0,2013-08-08 01:13:00
8:33 PM,64.4,55.4,73,30.01,10.0,Calm,Calm,-,N/A,,Clear,0,2013-08-08 01:33:00
8:53 PM,64.4,55.4,73,30.01,10.0,Calm,Calm,-,N/A,,Clear,0,2013-08-08 01:53:00
9:12 PM,62.6,55.4,77,30.02,10.0,NNW,3.5,-,N/A,,Clear,330,2013-08-08 02:12:00
9:33 PM,60.8,57.2,88,30.03,10.0,Calm,Calm,-,N/A,,Clear,0,2013-08-08 02:33:00
9:53 PM,60.8,55.4,82,30.04,10.0,Calm,Calm,-,N/A,,Clear,0,2013-08-08 02:53:00
10:12 PM,59.0,55.4,88,30.05,10.0,Calm,Calm,-,N/A,,Clear,0,2013-08-08 03:12:00
10:33 PM,57.2,55.4,94,30.05,10.0,Calm,Calm,-,N/A,,Clear,0,2013-08-08 03:33:00
10:53 PM,57.2,55.4,94,30.05,10.0,Calm,Calm,-,N/A,,Clear,0,2013-08-08 03:53:00
11:12 PM,57.2,55.4,94,30.06,10.0,Calm,Calm,-,N/A,,Clear,0,2013-08-08 04:12:00
11:33 PM,57.2,55.4,94,30.06,10.0,Calm,Calm,-,N/A,,Clear,0,2013-08-08 04:33:00
11:52 PM,57.2,55.4,94,30.06,10.0,Calm,Calm,-,N/A,,Clear,0,2013-08-08 04:52:00